Regional Weather Roundup
Issued by NWS Sterling, VA

Home | Current Version | Previous Version | Graphics & Text | Print | Product List | Glossary On
Versions: 1 2 3 4 5 6 7 8 9 10 11 12 13 14 15 16 17 18 19 20 21 22 23 24 25 26 27 28 29 30 31 32 33 34 35 36 37 38 39 40 41 42 43 44 45 46 47 48 49 50
000
ASUS41 KLWX 091210
RWRLWX

REGIONAL WEATHER ROUNDUP
NATIONAL WEATHER SERVICE BALTIMORE MD/WASHINGTON DC
700 AM EST TUE FEB 09 2016

Note: "FAIR" indicates few or no clouds below 12,000 feet
with no significant weather and/or obstructions to visibility.
 TC=TEMPERATURE CELSIUS

 * =Non NWS site. Station does not report precipitation (e.g. rain,
    snow, etc.), thunder, or fog.

DCZ001-MDZ009-015-VAZ040>042-051-053>054-091300-
WASHINGTON METRO

CITY           SKY/WX    TMP DP  RH WIND       PRES   REMARKS
WASHINGTON NAT LGT SNOW  36  34  92 E5        29.59S FOG
DULLES         LGT SNOW  33  32  96 CALM      29.57S FOG
ANDREWS AFB    LGT RAIN  35  33  95 E6        29.56S
FT BELVOIR     DRIZZLE   36  34  94 CALM      29.57F
QUANTICO       LGT RAIN  39  36  89 E3        29.59R
COLLEGE PARK*  CLOUDY    34  34 100 CALM      29.58S
LEESBURG*      LGT SNOW  34  34 100 CALM      29.58S
MANASSAS*      CLOUDY    36  36 100 NW3       29.57S
GAITHERSBURG*  CLOUDY    34  28  80 CALM      29.60S

$$

MDZ006>007-011-014-091300-
BALTIMORE METRO

CITY           SKY/WX    TMP DP  RH WIND       PRES   REMARKS
BWI AIRPORT    LGT SNOW  34  33  96 E7        29.58S FOG
MD SCIENCE CTR   N/A     34  32  92 MISG      29.59S
MARTIN STATE   LGT SNOW  36  36 100 NE9       29.61S WCI  29
ANNAPOLIS      LGT RAIN  37  35  92 E6        29.58S
FORT MEADE*    CLOUDY    34  32  93 CALM      29.60S

$$

MDZ012-015-019>023-091300-
MARYLAND EASTERN SHORE

CITY           SKY/WX    TMP DP  RH WIND       PRES   REMARKS
OCEAN CITY     CLOUDY    40  36  86 NE7       29.56S
SALISBURY      LGT RAIN  38  36  92 NE6       29.57S
BAY BRIDGE AP*   N/A     36  36 100 E7        29.58F
CAMBRIDGE*     CLOUDY    36  34  93 E5        29.57F
EASTON*        LGT RAIN  37  37 100 E6        29.61F

$$

MDZ017>025-091300-
SOUTHERN MARYLAND

CITY           SKY/WX    TMP DP  RH WIND       PRES   REMARKS
PATUXENT RIVER LGT RAIN  38  36  92 E5        29.57S
ST INIGOES     CLOUDY    39  37  92 NE5       29.56S
LEONARDTOWN*   CLOUDY    36  36 100 CALM      29.58S

$$

MDZ003>005-091300-
NORTH CENTRAL MARYLAND

CITY           SKY/WX    TMP DP  RH WIND       PRES   REMARKS
FREDERICK*     LGT SNOW  34  34 100 CALM      29.60R VSB 3/4
HAGERSTOWN APT LGT SNOW  33  32  96 CALM      29.55R VSB 3/4
WESTMINSTER*   LGT SNOW  32  30  93 E5        29.55S VSB 1

$$

MDZ501>502-091300-
WESTERN MARYLAND

CITY           SKY/WX    TMP DP  RH WIND       PRES   REMARKS
OAKLAND*       CLOUDY    27  25  93 SW7       29.45R FOG
CUMBERLAND*    CLOUDY    32  32 100 CALM      29.59S VSB 1/2

$$

VAZ025>031-091300-
SHENANDOAH VALLEY

CITY           SKY/WX    TMP DP  RH WIND       PRES   REMARKS
WINCHESTER*    LGT RAIN  34  34 100 CALM      29.55S
FRONT ROYAL*   CLOUDY    34  32  93 CALM      29.54S
LURAY*         LGT RAIN  32  32 100 SW3       29.55R
NEW MARKET*    CLOUDY    33  32  98 W3        29.55R
STAUNTON*      LGT SNOW  36  34  93 CALM      29.57R
WAYNESBORO*    CLOUDY    32  26  77 SW5       29.54R

$$

WVZ021-048>050-054>055-091300-
EASTERN WEST VIRGINIA PANHANDLE

CITY           SKY/WX    TMP DP  RH WIND       PRES   REMARKS
MARTINSBURG    MIX PCPN  34  32  92 CALM      29.56R FOG
PETERSBURG*    CLOUDY    33  32  96 CALM      29.56R

$$

VAZ036>039-050-091300-
CENTRAL FOOTHILLS

CITY           SKY/WX    TMP DP  RH WIND       PRES   REMARKS
CHARLOTTESVILL CLOUDY    35  34  96 CALM      29.56S FOG
CULPEPER*      MIX PCPN  35  35 100 CALM      29.58S
ORANGE*        CLOUDY    36  36 100 CALM      29.58S FOG
GORDONSVILLE*  CLOUDY    35  35 100 CALM      29.57S FOG
WARRENTON*     DRIZZLE   37  37 100 CALM      29.56F

$$

VAZ055>057-091300-
NORTH AND CENTRAL PIEDMONT

CITY           SKY/WX    TMP DP  RH WIND       PRES   REMARKS
FREDERICKSBRG* DRIZZLE   37  37 100 CALM      29.57S
STAFFORD*      DRIZZLE   37  37  98 CALM      29.61S

$$

NCZ024-NYZ072-PAZ021-071-VAZ022-071-091300-
OTHER REGIONAL OBSERVATIONS

CITY           SKY/WX    TMP DP  RH WIND       PRES   REMARKS
NEW YORK CITY  CLOUDY    28  21  75 VRB7      29.71R
PHILADELPHIA   CLOUDY    32  27  81 E13       29.64S WCI  22
PITTSBURGH     LGT SNOW  31  29  92 W5        29.52S FOG
ROANOKE        CLOUDY    32  25  75 W10       29.61R WCI  24
RICHMOND       CLOUDY    38  37  97 W8        29.57S FOG
RALEIGH        CLOUDY    36  32  85 W5        29.64R

$$

ANZ530>537-091300-
MARINE OBSERVATIONS

STATION/POSITION TIME  TEMP    WIND        PRES
                       AIR SEA DIR/SP/G
                 (UTC) (F)     (DEG/KT/KT) (MB)
THOMAS PT LIGHT  NOT AVBL
BALT KEY BRIDGE  1100   35      70/  9/ 11 1002.0F
COVE POINT       1100   37     120/  8/ 11 1001.9S
LEWISETTA        1100   40 41  100/  7/  8 1000.7S
SOLOMONS ISLAND  1100   38 41   80/  9/ 11   N/A
PINEY POINT      1100          110/  8/  9   N/A

$$





USA.gov is the U.S. government's official web portal to all federal, state and local government web resources and services.